Location: Detroit
(42.3310°N, 83.0460°W)
Time: 17:30:19
(UTC-05:00)

X-37B - Visible Passes

Search period start: 01 December 2021 00:00
Search period end: 11 December 2021 00:00
Orbit: 330 x 341 km, 45.0° (Epoch: 20 November)

Date Brightness Start Highest point End Pass type
(mag) Time Alt. Az. Time Alt. Az. Time Alt. Az.
04 Dec 3.1 18:54:38 10° S 18:55:10 13° S 18:55:10 13° S visible
05 Dec 3.1 19:14:10 10° SW 19:14:56 16° SW 19:14:56 16° SW visible
06 Dec 2.4 18:00:05 10° S 18:02:04 17° SE 18:03:24 13° ESE visible
06 Dec 3.9 19:34:24 10° WSW 19:34:38 12° WSW 19:34:38 12° WSW visible
07 Dec 1.1 18:19:36 10° SW 18:22:19 40° SSE 18:23:02 32° ESE visible
08 Dec 0.2 18:39:50 10° WSW 18:42:38 85° WSW 18:42:38 85° WSW visible
09 Dec 2.0 19:00:22 10° W 19:02:11 33° WNW 19:02:11 33° WNW visible
10 Dec 0.3 17:45:15 10° WSW 17:48:08 88° SSE 17:50:30 14° ENE visible
10 Dec 3.3 19:20:59 10° WNW 19:21:44 16° WNW 19:21:44 16° WNW visible
